• In Belarus
  • List of Countries
  • For 7 days
  • Water Temperature
  • Satellite Maps
  • Weather Map
  • Weather Widgets
  • user-avatar
    Login

    Hourly Weather Kalgoorlie

    Today, 17 July, Tuesday

    Time Temperature Precipitation Wind Pressure Humidity
    00:00 +10°C° 0 mm 7 mps 729 mmHg 79%
    01:00 +10°C° 0 mm 6 mps 729 mmHg 82%
    02:00 +9°C° 0 mm 5 mps 729 mmHg 87%
    03:00 +8°C° 0 mm 4 mps 729 mmHg 89%
    04:00 +8°C° 0 mm 4 mps 729 mmHg 90%
    05:00 +7°C° 0 mm 4 mps 729 mmHg 92%
    06:00 +7°C° 0 mm 4 mps 730 mmHg 89%
    07:00 +8°C° 0 mm 3 mps 730 mmHg 85%
    08:00 +8°C° 0 mm 3 mps 730 mmHg 82%
    09:00 +10°C° 0 mm 3 mps 731 mmHg 70%
    10:00 +12°C° 0 mm 3 mps 731 mmHg 57%
    11:00 +13°C° 0 mm 4 mps 731 mmHg 45%
    12:00 +15°C° 0 mm 4 mps 731 mmHg 41%
    13:00 +16°C° 0 mm 5 mps 730 mmHg 37%
    14:00 +17°C° 0 mm 5 mps 729 mmHg 32%
    15:00 +16°C° 0 mm 5 mps 729 mmHg 34%
    16:00 +17°C° 0 mm 4 mps 729 mmHg 36%
    17:00 +17°C° 0 mm 4 mps 729 mmHg 37%
    18:00 +15°C° 0 mm 4 mps 730 mmHg 41%
    19:00 +14°C° 0 mm 4 mps 730 mmHg 45%
    20:00 +13°C° 0 mm 4 mps 730 mmHg 48%
    21:00 +12°C° 0 mm 4 mps 730 mmHg 52%
    22:00 +12°C° 0 mm 4 mps 730 mmHg 55%
    23:00 +11°C° 0 mm 4 mps 730 mmHg 59%

    Tomorrow, 18 July, Wednesday

    Time Temperature Precipitation Wind Pressure Humidity
    00:00 +11°C° 0 mm 4 mps 730 mmHg 62%
    01:00 +10°C° 0 mm 4 mps 730 mmHg 66%
    02:00 +10°C° 0 mm 4 mps 730 mmHg 70%
    03:00 +8°C° 0 mm 4 mps 730 mmHg 75%
    04:00 +8°C° 0 mm 4 mps 730 mmHg 80%
    05:00 +7°C° 0 mm 4 mps 730 mmHg 85%
    06:00 +8°C° 0 mm 4 mps 730 mmHg 84%
    07:00 +8°C° 0 mm 4 mps 730 mmHg 82%
    08:00 +8°C° 0 mm 4 mps 731 mmHg 81%
    09:00 +10°C° 0 mm 5 mps 731 mmHg 71%
    10:00 +13°C° 0 mm 5 mps 731 mmHg 61%
    11:00 +15°C° 0 mm 6 mps 731 mmHg 51%
    12:00 +16°C° 0 mm 6 mps 730 mmHg 48%
    13:00 +16°C° 0 mm 6 mps 730 mmHg 46%
    14:00 +17°C° 0 mm 7 mps 729 mmHg 43%
    15:00 +16°C° 0 mm 6 mps 730 mmHg 46%
    16:00 +15°C° 0 mm 6 mps 730 mmHg 50%
    17:00 +14°C° 0 mm 6 mps 730 mmHg 53%
    18:00 +14°C° 0 mm 5 mps 730 mmHg 57%
    19:00 +13°C° 0 mm 5 mps 731 mmHg 61%
    20:00 +12°C° 0 mm 4 mps 731 mmHg 64%
    21:00 +12°C° 0 mm 4 mps 731 mmHg 66%
    22:00 +11°C° 0 mm 4 mps 732 mmHg 68%
    23:00 +10°C° 0 mm 5 mps 732 mmHg 69%

    Day after tomorrow, 19 July, Thursday

    Time Temperature Precipitation Wind Pressure Humidity
    00:00 +9°C° 0 mm 5 mps 732 mmHg 75%
    01:00 +10°C° 0 mm 4 mps 732 mmHg 80%
    02:00 +8°C° 0 mm 4 mps 732 mmHg 85%
    03:00 +8°C° 0 mm 4 mps 733 mmHg 84%
    04:00 +8°C° 0 mm 4 mps 733 mmHg 83%
    05:00 +8°C° 0 mm 5 mps 733 mmHg 82%
    06:00 +8°C° 0 mm 4 mps 734 mmHg 80%
    07:00 +8°C° 0 mm 4 mps 734 mmHg 78%
    08:00 +7°C° 0 mm 4 mps 734 mmHg 75%
    09:00 +10°C° 0 mm 3 mps 735 mmHg 66%
    10:00 +11°C° 0 mm 3 mps 735 mmHg 57%
    11:00 +13°C° 0 mm 2 mps 735 mmHg 49%
    12:00 +14°C° 0 mm 2 mps 734 mmHg 44%
    13:00 +14°C° 0 mm 2 mps 734 mmHg 40%
    14:00 +15°C° 0 mm 2 mps 734 mmHg 36%
    15:00 +15°C° 0 mm 2 mps 734 mmHg 36%
    16:00 +15°C° 0 mm 2 mps 734 mmHg 37%
    17:00 +14°C° 0 mm 2 mps 734 mmHg 38%
    18:00 +13°C° 0 mm 2 mps 734 mmHg 40%
    19:00 +12°C° 0 mm 2 mps 735 mmHg 43%
    20:00 +12°C° 0 mm 2 mps 735 mmHg 46%
    21:00 +10°C° 0 mm 2 mps 735 mmHg 49%
    22:00 +10°C° 0 mm 2 mps 735 mmHg 52%
    23:00 +9°C° 0 mm 2 mps 735 mmHg 55%

    20 July, Friday

    Time Temperature Precipitation Wind Pressure Humidity
    00:00 +9°C° 0 mm 3 mps 735 mmHg 57%
    01:00 +8°C° 0 mm 3 mps 735 mmHg 59%
    02:00 +8°C° 0 mm 3 mps 734 mmHg 62%
    03:00 +7°C° 0 mm 3 mps 734 mmHg 63%
    04:00 +7°C° 0 mm 3 mps 734 mmHg 64%
    05:00 +6°C° 0 mm 4 mps 734 mmHg 65%
    06:00 +6°C° 0 mm 4 mps 734 mmHg 62%
    07:00 +7°C° 0 mm 5 mps 734 mmHg 59%
    08:00 +7°C° 0 mm 5 mps 734 mmHg 56%
    09:00 +10°C° 0 mm 6 mps 733 mmHg 50%
    10:00 +12°C° 0 mm 7 mps 733 mmHg 45%
    11:00 +15°C° 0 mm 8 mps 732 mmHg 39%
    12:00 +17°C° 0 mm 8 mps 731 mmHg 37%
    13:00 +18°C° 0 mm 8 mps 730 mmHg 34%
    14:00 +20°C° 0 mm 8 mps 729 mmHg 32%
    15:00 +18°C° 0 mm 7 mps 729 mmHg 32%
    16:00 +19°C° 0 mm 6 mps 729 mmHg 33%
    17:00 +17°C° 0 mm 5 mps 728 mmHg 34%
    18:00 +17°C° 0 mm 4 mps 729 mmHg 36%
    19:00 +17°C° 0 mm 4 mps 729 mmHg 38%
    20:00 +15°C° 0 mm 4 mps 729 mmHg 40%
    21:00 +14°C° 0 mm 4 mps 728 mmHg 42%
    22:00 +14°C° 0 mm 5 mps 728 mmHg 43%
    23:00 +14°C° 0 mm 5 mps 728 mmHg 44%

    21 July, Saturday

    Time Temperature Precipitation Wind Pressure Humidity
    00:00 +13°C° 0 mm 5 mps 727 mmHg 46%
    01:00 +13°C° 0 mm 5 mps 727 mmHg 48%
    02:00 +13°C° 0 mm 5 mps 726 mmHg 50%
    03:00 +13°C° 0 mm 5 mps 726 mmHg 51%
    04:00 +12°C° 0 mm 5 mps 726 mmHg 53%
    05:00 +12°C° 0 mm 5 mps 726 mmHg 55%
    06:00 +12°C° 0 mm 5 mps 726 mmHg 54%
    07:00 +13°C° 0 mm 6 mps 726 mmHg 54%
    08:00 +13°C° 0 mm 6 mps 726 mmHg 53%
    09:00 +15°C° 0 mm 7 mps 726 mmHg 47%
    10:00 +18°C° 0 mm 9 mps 725 mmHg 41%
    11:00 +21°C° 0 mm 10 mps 725 mmHg 35%
    12:00 +22°C° 0 mm 11 mps 724 mmHg 34%
    13:00 +23°C° 0 mm 12 mps 723 mmHg 32%
    14:00 +23°C° 0 mm 13 mps 722 mmHg 31%
    15:00 +22°C° 0 mm 11 mps 722 mmHg 33%
    16:00 +22°C° 0 mm 10 mps 722 mmHg 36%
    17:00 +21°C° 0 mm 8 mps 722 mmHg 38%
    18:00 +20°C° 0 mm 8 mps 722 mmHg 41%
    19:00 +18°C° 0 mm 8 mps 722 mmHg 44%
    20:00 +17°C° 0 mm 7 mps 723 mmHg 47%
    21:00 +17°C° 0.1 mm 7 mps 722 mmHg 54%
    22:00 +17°C° 0.1 mm 8 mps 722 mmHg 60%
    23:00 +17°C° 0.1 mm 8 mps 722 mmHg 67%

    22 July, Sunday

    Time Temperature Precipitation Wind Pressure Humidity
    00:00 +17°C° 0.1 mm 9 mps 721 mmHg 69%
    01:00 +16°C° 0.1 mm 9 mps 721 mmHg 71%
    02:00 +16°C° 0.1 mm 10 mps 721 mmHg 74%
    03:00 +16°C° 0.1 mm 10 mps 721 mmHg 74%
    04:00 +16°C° 0.1 mm 11 mps 720 mmHg 74%
    05:00 +14°C° 0.1 mm 11 mps 720 mmHg 74%
    06:00 +14°C° 0.1 mm 12 mps 720 mmHg 70%
    07:00 +14°C° 0.1 mm 12 mps 721 mmHg 67%
    08:00 +13°C° 0.1 mm 13 mps 721 mmHg 63%
    09:00 +13°C° 0.1 mm 14 mps 721 mmHg 60%
    10:00 +13°C° 0.1 mm 14 mps 722 mmHg 57%
    11:00 +14°C° 0.1 mm 15 mps 722 mmHg 54%
    12:00 +13°C° 0.1 mm 15 mps 723 mmHg 52%
    13:00 +12°C° 0.1 mm 14 mps 723 mmHg 50%
    14:00 +12°C° 0.1 mm 13 mps 723 mmHg 47%
    15:00 +10°C° 0.1 mm 13 mps 724 mmHg 47%
    16:00 +9°C° 0.1 mm 13 mps 725 mmHg 46%
    17:00 +9°C° 0.1 mm 13 mps 726 mmHg 46%
    18:00 +8°C° 0 mm 11 mps 727 mmHg 47%
    19:00 +7°C° 0 mm 9 mps 728 mmHg 47%
    20:00 +8°C° 0 mm 7 mps 729 mmHg 48%
    21:00 +7°C° 0 mm 6 mps 729 mmHg 51%
    22:00 +7°C° 0 mm 6 mps 730 mmHg 53%
    23:00 +6°C° 0 mm 5 mps 730 mmHg 55%
    Show more